[[{"header":{"parameterUnit":"m.s-1","parameterCategory":1,"la1":30.2991,"la2":30.254,"lo1":-89.0895,"lo2":-89.0444,"dy":0.0017,"dx":0.0017,"nx":28,"ny":28,"refTime":"2023-11-04T09:00:00:Z","depth":0,"parameterNumber":2,"parameterNumberName":"U-component_of_WINDS"},"data":[0,0,0,0,0,0,0,0,0,0,0,0,0,0,0,0,0,0,0,0,0,0,0,0,0,0,0,0,0,0,0,0,0,0,0,0,0,0,0,0,0,0,0,0,0,0,0,0,0,0,0,0,0,0,0,0,0,0,0.1973,0.1972,0,0.1851,0.185,0.1849,0.1755,0.1754,0.1753,0.1752,0.1626,0.1624,0.1621,0,0,0,0,0,0,0,0,0,0,0,0,0,0.2122,0.212,0.1973,0.1972,0.197,0.1852,0.185,0.1848,0.1755,0.1754,0.1753,0.1752,0.1627,0.1624,0.1621,0,0,0,0,0,0,0,0,0,0,0,0,0,0.2035,0.2119,0.1973,0.1909,0.1902,0.1852,0.185,0.1848,0.1755,0.1754,0.1753,0.1751,0.1628,0.1624,0.1621,0.1623,0,0,0.1609,0.1607,0,0,0,0,0,0,0,0,0.204,0.2029,0.192,0.1914,0.1906,0.1817,0.1856,0.1773,0.1756,0.1811,0.1752,0.1751,0.1691,0.1682,0.1662,0.1618,0.1612,0.1609,0.1606,0.1605,0.1604,0,0,0,0,0,0,0,0.2046,0.2034,0.1925,0.1919,0.191,0.1886,0.1872,0.184,0.176,0.1806,0.1799,0.1786,0.1686,0.1666,0.1658,0.161,0.1609,0.1605,0.1603,0.1602,0.156,0.1561,0,0,0,0,0,0,0.2062,0.204,0.1929,0.1921,0.1971,0.1884,0.1869,0.1847,0.176,0.1745,0.1787,0.1782,0.1673,0.1663,0.1653,0.1649,0.1605,0.1601,0.1599,0.1559,0.156,0.1561,0,0,0,0,0,0,0.2066,0.2053,0.1934,0.1978,0.1961,0.1883,0.1859,0.1845,0.1824,0.1746,0.1731,0.1781,0.1671,0.1659,0.1631,0.1644,0.1599,0.1596,0.1557,0.1559,0.1561,0.1643,0,0,0,0,0,0,0.207,0.2055,0.2056,0.1979,0.1959,0.1915,0.186,0.1844,0.1818,0.181,0.1736,0.1722,0.1669,0.1637,0.1627,0.1638,0.1593,0.1556,0.1558,0.156,0.1639,0.1647,0.1655,0,0,0,0,0,0.2076,0.2084,0.2057,0.2044,0.1959,0.1916,0.1904,0.1844,0.182,0.1819,0.1768,0.1724,0.1644,0.1635,0.1623,0.1633,0.1555,0.1557,0.156,0.1635,0.1646,0.1655,0,0,0,0,0,0,0.2165,0.2073,0.2042,0.2025,0.1979,0.19,0.1898,0.1857,0.1817,0.1811,0.1737,0.1721,0.1701,0.1664,0.1656,0.163,0.1594,0.1594,0.1655,0.1664,0.1672,0.1681,0.159,0,0,0,0,0,0.2183,0.2156,0.2077,0.207,0.2048,0.1978,0.1956,0.1914,0.1863,0.1843,0.179,0.1741,0.1705,0.1682,0.1645,0.1633,0.1614,0.1633,0.1641,0.1648,0.1649,0.1638,0.1645,0.157,0.157,0.157,0,0,0.2219,0.2166,0.2153,0.2087,0.2046,0.2018,0.1962,0.1936,0.1914,0.1838,0.1809,0.1769,0.1709,0.169,0.1678,0.1658,0.1666,0.1651,0.1658,0.1655,0.1642,0.1649,0.1656,0.1572,0.1572,0.1571,0,0,0.2271,0.2229,0.2218,0.2178,0.2116,0.2069,0.2066,0.1993,0.1963,0.1933,0.1874,0.1847,0.1787,0.1746,0.1718,0.1753,0.171,0.1743,0.1784,0.1775,0.178,0.1785,0.1797,0.1802,0.1744,0.1744,0.1744,0,0.2324,0.2282,0.2217,0.2194,0.2166,0.2096,0.2083,0.2047,0.1977,0.1958,0.1937,0.1857,0.1813,0.1782,0.179,0.177,0.1763,0.1751,0.1785,0.1789,0.1793,0.1803,0.1807,0.1748,0.1748,0.1747,0.1747,0,0.2349,0.232,0.2318,0.2252,0.2223,0.2206,0.2138,0.2116,0.2076,0.203,0.1999,0.1942,0.1891,0.188,0.1841,0.1843,0.1832,0.1799,0.1761,0.1805,0.1813,0.1817,0.1755,0.1753,0.1752,0.1751,0,0,0.2455,0.2352,0.2353,0.2321,0.2247,0.2223,0.2202,0.2152,0.2134,0.2087,0.2066,0.2016,0.1984,0.1952,0.1906,0.1898,0.1928,0.1865,0.1862,0.1878,0.1925,0.1951,0.1956,0.1899,0.1899,0.19,0.193,0,0.2495,0.2453,0.2394,0.2371,0.2343,0.2275,0.2256,0.2208,0.2164,0.2133,0.2084,0.2049,0.201,0.199,0.1979,0.1927,0.1936,0.1924,0.1878,0.1877,0.1895,0.1961,0.1988,0.2019,0.1933,0.1933,0.1933,0,0.2537,0.2494,0.2469,0.2396,0.2381,0.2366,0.2314,0.2285,0.2229,0.2197,0.2161,0.2112,0.2084,0.205,0.201,0.2002,0.198,0.1951,0.1951,0.1944,0.1908,0.1955,0.2028,0.2032,0.1938,0.1938,0.1937,0,0.2616,0.2551,0.2527,0.2502,0.2417,0.2407,0.2371,0.2313,0.2286,0.2241,0.2222,0.2175,0.2148,0.2111,0.205,0.2031,0.2016,0.1977,0.1988,0.199,0.1988,0.1989,0.2058,0.1974,0.1974,0.1974,0.1974,0,0.2667,0.2654,0.2561,0.2547,0.253,0.246,0.2445,0.2402,0.2351,0.2326,0.2264,0.2242,0.2162,0.2129,0.2081,0.2054,0.2043,0.2016,0.2003,0.2021,0.2025,0.2005,0.2001,0.1975,0.1975,0.1975,0.1975,0,0.2752,0.269,0.2659,0.258,0.256,0.2551,0.2483,0.2465,0.2417,0.2386,0.2375,0.23,0.2258,0.2193,0.2133,0.21,0.2081,0.206,0.2101,0.2093,0.2107,0.2106,0.2166,0.2169,0.2085,0.2086,0.2087,0,0.2789,0.2777,0.2697,0.2676,0.2642,0.2609,0.2581,0.2511,0.2485,0.2418,0.2409,0.2362,0.2322,0.2259,0.2198,0.2151,0.2128,0.2151,0.212,0.2138,0.2127,0.2128,0.2126,0.2159,0.216,0.2161,0.2162,0,0.286,0.2829,0.2792,0.2743,0.2712,0.267,0.2625,0.2611,0.2532,0.2505,0.2462,0.243,0.2368,0.2322,0.2266,0.2227,0.2181,0.2172,0.2172,0.2191,0.2214,0.2201,0.212,0.2171,0.217,0.217,0.2169,0.2169,0.2921,0.2907,0.2848,0.2808,0.2767,0.2726,0.2705,0.2654,0.2618,0.2562,0.2523,0.2482,0.2423,0.2343,0.2307,0.2273,0.2253,0.2253,0.2253,0.2254,0.226,0.222,0.2263,0.2262,0.2262,0.2262,0.2261,0,0.2988,0.2946,0.291,0.2849,0.2817,0.2777,0.2725,0.27,0.2665,0.2615,0.2576,0.2526,0.2481,0.2416,0.2366,0.2351,0.2329,0.234,0.234,0.2332,0.2282,0.2286,0.2359,0.2359,0.2359,0.2359,0.2359,0.2359,0.3019,0.2993,0.2955,0.2907,0.2865,0.2825,0.2798,0.276,0.2719,0.2666,0.2628,0.2586,0.253,0.2474,0.2431,0.2413,0.2397,0.2415,0.239,0.2345,0.2336,0.2327,0.2331,0.2412,0.2412,0.2443,0.2444,0.2444]},{"header":{"parameterUnit":"m.s-1","parameterCategory":1,"la1":30.2991,"la2":30.254,"lo1":-89.0895,"lo2":-89.0444,"dy":0.0017,"dx":0.0017,"nx":28,"ny":28,"refTime":"2023-11-04T09:00:00:Z","depth":0,"parameterNumber":3,"parameterNumberName":"V-component_of_WINDS"},"data":[0,0,0,0,0,0,0,0,0,0,0,0,0,0,0,0,0,0,0,0,0,0,0,0,0,0,0,0,0,0,0,0,0,0,0,0,0,0,0,0,0,0,0,0,0,0,0,0,0,0,0,0,0,0,0,0,0,0,-0.3452,-0.3452,0,-0.3509,-0.351,-0.3511,-0.3557,-0.3557,-0.3558,-0.3558,-0.3619,-0.3621,-0.3622,0,0,0,0,0,0,0,0,0,0,0,0,0,-0.3385,-0.3386,-0.3452,-0.3453,-0.3453,-0.3509,-0.351,-0.3511,-0.3557,-0.3557,-0.3558,-0.3559,-0.3619,-0.362,-0.3622,0,0,0,0,0,0,0,0,0,0,0,0,0,-0.3425,-0.3386,-0.3452,-0.3483,-0.3486,-0.3509,-0.351,-0.3511,-0.3557,-0.3557,-0.3558,-0.3559,-0.3619,-0.362,-0.3622,-0.3619,0,0,-0.3627,-0.3628,0,0,0,0,0,0,0,0,-0.3423,-0.3428,-0.3478,-0.3481,-0.3485,-0.3527,-0.3509,-0.3547,-0.3557,-0.353,-0.3558,-0.3559,-0.3588,-0.3592,-0.3602,-0.3622,-0.3624,-0.3628,-0.3629,-0.3629,-0.363,0,0,0,0,0,0,0,-0.342,-0.3425,-0.3475,-0.3478,-0.3483,-0.3495,-0.3501,-0.3516,-0.3555,-0.3532,-0.3536,-0.3542,-0.359,-0.36,-0.3604,-0.3625,-0.3628,-0.3629,-0.363,-0.3631,-0.3646,-0.3646,0,0,0,0,0,0,-0.3412,-0.3423,-0.3473,-0.3476,-0.3455,-0.3496,-0.3503,-0.3512,-0.3554,-0.3562,-0.3541,-0.3544,-0.3597,-0.3601,-0.3606,-0.3605,-0.3629,-0.3631,-0.3632,-0.3647,-0.3646,-0.3645,0,0,0,0,0,0,-0.341,-0.3416,-0.3471,-0.3451,-0.3458,-0.3496,-0.3506,-0.3513,-0.3523,-0.3561,-0.3568,-0.3544,-0.3597,-0.3603,-0.3615,-0.3608,-0.3632,-0.3634,-0.3648,-0.3647,-0.3646,-0.3604,0,0,0,0,0,0,-0.3408,-0.3415,-0.3414,-0.345,-0.3459,-0.3478,-0.3506,-0.3514,-0.3526,-0.353,-0.3566,-0.3572,-0.3598,-0.3612,-0.3617,-0.3611,-0.3635,-0.3649,-0.3647,-0.3646,-0.3606,-0.3602,-0.3598,0,0,0,0,0,-0.3406,-0.34,-0.3413,-0.3419,-0.3458,-0.3478,-0.3483,-0.3512,-0.3525,-0.3524,-0.3549,-0.3571,-0.3608,-0.3613,-0.3619,-0.3613,-0.3649,-0.3648,-0.3646,-0.3608,-0.3602,-0.3598,0,0,0,0,0,0,-0.3363,-0.3405,-0.3421,-0.3427,-0.3448,-0.3485,-0.3485,-0.3505,-0.3524,-0.3527,-0.3564,-0.3571,-0.358,-0.3598,-0.3603,-0.3613,-0.3632,-0.3631,-0.3601,-0.3596,-0.3591,-0.3587,-0.3636,0,0,0,0,0,-0.3354,-0.3365,-0.3402,-0.3404,-0.3414,-0.3447,-0.3457,-0.3478,-0.3502,-0.3511,-0.3537,-0.356,-0.3577,-0.3587,-0.3605,-0.3609,-0.3618,-0.3608,-0.3604,-0.36,-0.3599,-0.3603,-0.36,-0.3641,-0.3641,-0.3641,0,0,-0.3336,-0.336,-0.3366,-0.3396,-0.3415,-0.3427,-0.3455,-0.3466,-0.3476,-0.3513,-0.3526,-0.3545,-0.3574,-0.3582,-0.3587,-0.3597,-0.359,-0.3598,-0.3595,-0.3596,-0.3601,-0.3597,-0.3594,-0.364,-0.364,-0.364,0,0,-0.3309,-0.3328,-0.3332,-0.335,-0.3379,-0.3401,-0.3402,-0.3436,-0.345,-0.3464,-0.3492,-0.3504,-0.3532,-0.3552,-0.3565,-0.3545,-0.3567,-0.355,-0.3528,-0.3532,-0.3528,-0.3526,-0.3519,-0.3516,-0.3549,-0.3549,-0.3549,0,-0.3283,-0.3301,-0.3331,-0.3341,-0.3354,-0.3388,-0.3392,-0.3409,-0.3441,-0.345,-0.3461,-0.3497,-0.3519,-0.3532,-0.3527,-0.3536,-0.3539,-0.3546,-0.3526,-0.3524,-0.3522,-0.3516,-0.3513,-0.3547,-0.3547,-0.3547,-0.3547,0,-0.3268,-0.328,-0.328,-0.331,-0.3323,-0.3329,-0.3362,-0.3371,-0.3391,-0.3412,-0.3426,-0.3452,-0.3476,-0.3481,-0.35,-0.3497,-0.3502,-0.3519,-0.3539,-0.3515,-0.351,-0.3508,-0.3544,-0.3544,-0.3545,-0.3546,0,0,-0.3216,-0.3262,-0.3262,-0.3276,-0.331,-0.332,-0.3329,-0.3351,-0.3359,-0.338,-0.3389,-0.3412,-0.3428,-0.3443,-0.3465,-0.3468,-0.3451,-0.3485,-0.3486,-0.3478,-0.345,-0.3437,-0.3434,-0.3465,-0.3465,-0.3465,-0.3447,0,-0.3195,-0.3211,-0.3239,-0.3247,-0.3259,-0.3292,-0.3299,-0.3321,-0.3341,-0.3355,-0.3378,-0.3394,-0.3414,-0.3423,-0.3427,-0.3452,-0.3446,-0.3454,-0.3475,-0.3475,-0.3467,-0.3431,-0.3418,-0.34,-0.3446,-0.3445,-0.3445,0,-0.3172,-0.3191,-0.32,-0.3233,-0.3239,-0.3245,-0.3268,-0.3281,-0.3307,-0.3321,-0.3338,-0.3362,-0.3373,-0.3391,-0.3408,-0.3413,-0.3423,-0.3436,-0.3436,-0.344,-0.3459,-0.3434,-0.3395,-0.3392,-0.3442,-0.3442,-0.3443,0,-0.3134,-0.3161,-0.3171,-0.3182,-0.322,-0.3224,-0.324,-0.3267,-0.3278,-0.3299,-0.3307,-0.3329,-0.3341,-0.3357,-0.3386,-0.3396,-0.34,-0.342,-0.3414,-0.3413,-0.3414,-0.3413,-0.3376,-0.3419,-0.3419,-0.3419,-0.3419,0,-0.3107,-0.3112,-0.3154,-0.3159,-0.3165,-0.3197,-0.3203,-0.3222,-0.3245,-0.3256,-0.3286,-0.3295,-0.3333,-0.3347,-0.337,-0.3381,-0.3386,-0.3399,-0.3405,-0.3397,-0.3395,-0.3404,-0.3406,-0.3419,-0.3419,-0.3419,-0.3419,0,-0.3066,-0.3094,-0.3106,-0.3141,-0.315,-0.3153,-0.3184,-0.3191,-0.3213,-0.3226,-0.3231,-0.3266,-0.3284,-0.3314,-0.3342,-0.3357,-0.3364,-0.3374,-0.3355,-0.3359,-0.3351,-0.3351,-0.3318,-0.3316,-0.336,-0.3359,-0.3359,0,-0.3047,-0.3051,-0.3086,-0.3095,-0.311,-0.3124,-0.3136,-0.3168,-0.318,-0.3209,-0.3213,-0.3233,-0.3251,-0.3279,-0.3307,-0.3328,-0.334,-0.3327,-0.3343,-0.3334,-0.334,-0.334,-0.334,-0.3323,-0.3322,-0.3322,-0.3321,0,-0.3011,-0.3025,-0.3041,-0.3061,-0.3075,-0.3093,-0.3113,-0.3118,-0.3155,-0.3166,-0.3185,-0.3199,-0.3226,-0.3246,-0.3271,-0.3289,-0.3312,-0.3316,-0.3316,-0.3307,-0.3296,-0.3302,-0.3345,-0.3317,-0.3317,-0.3317,-0.3318,-0.3318,-0.2981,-0.2986,-0.3012,-0.3029,-0.3047,-0.3064,-0.3073,-0.3095,-0.3111,-0.3136,-0.3154,-0.3171,-0.3197,-0.3233,-0.325,-0.3264,-0.3275,-0.3274,-0.3274,-0.3273,-0.327,-0.3293,-0.3269,-0.3269,-0.3269,-0.327,-0.327,0,-0.2947,-0.2965,-0.298,-0.3007,-0.302,-0.3039,-0.3062,-0.3072,-0.3086,-0.3108,-0.3125,-0.3147,-0.3166,-0.3196,-0.3218,-0.3224,-0.3235,-0.3229,-0.3229,-0.3233,-0.326,-0.3258,-0.322,-0.322,-0.322,-0.322,-0.322,-0.322,-0.2931,-0.2941,-0.2958,-0.2977,-0.2996,-0.3012,-0.3024,-0.304,-0.3058,-0.3081,-0.3097,-0.3116,-0.3141,-0.3165,-0.3185,-0.3193,-0.32,-0.3191,-0.3202,-0.3227,-0.3231,-0.3236,-0.3234,-0.3192,-0.3192,-0.3175,-0.3175,-0.3174]}]]